Humidity-temperature Sensor

Selected Measurement Type: Relative Humidity

 
Relative Humidity [%]     6 entries per hour
Showing data from 5/27/2018 (00:00:00 Z) to 5/26/2018 (00:01:00 Z)
Previous Next [ Day | 3-Days | 7-Days ]
First Last
Prev [ Day | 3-Days | 7-Days ] Next
First Last

Start Time:     :
End Time:     :     
Time (in GMT) :00 :50 :40 :30 :20 :10
Previous Next [ Day | 3-Days | 7-Days ]
First Last
Prev [ Day | 3-Days | 7-Days ] Next
First Last


123 => good data
MM => data is determined as missing
-- => data not received/configured
Back to Top Back to Top
5/27/2018 00:00 to 23:10 81.84 81.93 85.45 86.53 86.50 87.50
5/26/2018 23:00 to 22:10 87.25 87.29 88.02 82.42 82.07 81.84
5/26/2018 22:00 to 21:10 81.26 82.26 83.63 84.41 85.34 89.82
5/26/2018 21:00 to 20:10 87.33 81.41 81.49 84.70 82.03 80.12
5/26/2018 20:00 to 19:10 80.27 79.38 80.68 81.47 81.41 81.37
5/26/2018 19:00 to 18:10 84.76 84.41 79.92 79.71 80.52 80.91
5/26/2018 18:00 to 17:10 80.95 80.02 79.23 78.76 81.66 81.49
5/26/2018 17:00 to 16:10 83.44 81.24 81.55 81.28 80.95 81.47
5/26/2018 16:00 to 15:10 81.43 82.24 82.40 82.07 85.34 86.96
5/26/2018 15:00 to 14:10 84.97 86.05 86.17 86.32 85.37 85.72
5/26/2018 14:00 to 13:10 87.93 88.78 83.67 83.31 83.65 82.98
5/26/2018 13:00 to 12:10 82.84 82.03 81.04 83.94 84.95 85.30
5/26/2018 12:00 to 11:10 82.49 83.13 85.10 89.09 83.09 82.36
5/26/2018 11:00 to 10:10 83.85 83.13 82.07 81.26 81.97 82.24
5/26/2018 10:00 to 9:10 82.84 86.36 86.09 86.61 88.47 83.00
5/26/2018 09:00 to 8:10 82.90 82.34 82.30 82.11 81.86 81.80
5/26/2018 08:00 to 7:10 80.66 81.66 83.05 80.73 80.00 82.53
5/26/2018 07:00 to 6:10 82.05 80.99 81.33 80.81 81.91 81.82
5/26/2018 06:00 to 5:10 83.34 81.33 80.89 80.97 79.75 78.86
5/26/2018 05:00 to 4:10 82.69 83.52 82.57 82.03 82.80 84.23
5/26/2018 04:00 to 3:10 84.27 86.09 85.12 84.58 85.08 85.51
5/26/2018 03:00 to 2:10 85.10 85.72 86.92 86.67 85.41 85.45
5/26/2018 02:00 to 1:10 81.97 78.03 79.71 78.61 78.36 78.82
5/26/2018 01:00 to 0:10 79.09 78.96 78.38 78.22 77.62 76.60